Weather History for KCKN - March, 2013

Change the Weather History Date:

Friday, March 1, 2013

  Actual Average Record
Temperature  
Mean Temperature 13 °F -  
Max Temperature 23 °F 21 °F 33 °F (1998)
Min Temperature 3 °F 5 °F -25 °F (2014)
Degree Days  
Heating Degree Days 52    
Moisture  
Dew Point 10 °F    
Average Humidity 75    
Maximum Humidity 86    
Minimum Humidity 63    
Precipitation  
Precipitation 0.00 in - - ()
Sea Level Pressure  
Sea Level Pressure 30.39 in    
Wind  
Wind Speed 4 mph (ENE)    
Max Wind Speed 9 mph    
Max Gust Speed -    
Visibility 10 miles    
Events      
Averages and records for this station are not official NWS values.
T = Trace of Precipitation, MM = Missing Value Source: NWS Daily Summary

Daily Weather History Graph

Daily Weather History Graph

Search for Another Location

Airport or City:

Trip Planner

Search our weather history database for the weather conditions in past years. The results will help you decide how hot, cold, wet, or windy it might be!

Date:

Astronomy

Mar. 01, 2013 Rise Set
Actual Time 7:06 AM CST 6:11 PM CST
Civil Twilight 6:35 AM CST 6:42 PM CST
Nautical Twilight 5:59 AM CST 7:18 PM CST
Astronomical Twilight 5:24 AM CST 7:54 PM CST
Moon 11:10 PM CST (3/1) 8:32 AM CST (3/1)
Length of Visible Light 12h 06m
Length of Day
11h 04m
Waning Gibbous, 83% of the Moon is Illuminated
Mar 1
Waning Gibbous
Mar 4
Last Quarter
Mar 11
New
Mar 19
First Quarter
Mar 27
Full

Hourly Weather History & Observations

Time (CST) Temp. Windchill Dew Point Humidity Pressure Visibility Wind Dir Wind Speed Gust Speed Precip Events Conditions
12:14 AM 17.6 °F 10.7 °F 12.2 °F 79% 30.33 in 10.0 mi North 4.6 mph - N/A   Overcast
12:34 AM 17.6 °F - 14.0 °F 86% 30.33 in 10.0 mi Calm Calm - N/A   Scattered Clouds
12:55 AM 17.6 °F 10.7 °F 12.2 °F 79% 30.34 in 10.0 mi NE 4.6 mph - N/A   Scattered Clouds
1:14 AM 19.4 °F 12.8 °F 14.0 °F 80% 30.34 in 10.0 mi NE 4.6 mph - N/A   Mostly Cloudy
1:35 AM 19.4 °F 12.8 °F 12.2 °F 74% 30.34 in 10.0 mi ENE 4.6 mph - N/A   Overcast
2:14 AM 19.4 °F 12.8 °F 12.2 °F 74% 30.34 in 10.0 mi ENE 4.6 mph - N/A   Mostly Cloudy
2:35 AM 19.4 °F 11.5 °F 12.2 °F 74% 30.35 in 10.0 mi ENE 5.8 mph - N/A   Mostly Cloudy
2:54 AM 19.4 °F 11.5 °F 12.2 °F 74% 30.35 in 10.0 mi ENE 5.8 mph - N/A   Mostly Cloudy
3:54 AM 17.6 °F 10.7 °F 12.2 °F 79% 30.36 in 10.0 mi East 4.6 mph - N/A   Scattered Clouds
4:14 AM 17.6 °F 10.7 °F 12.2 °F 79% 30.36 in 10.0 mi East 4.6 mph - N/A   Scattered Clouds
4:35 AM 17.6 °F 9.3 °F 12.2 °F 79% 30.36 in 10.0 mi East 5.8 mph - N/A   Clear
4:54 AM 17.6 °F 9.3 °F 12.2 °F 79% 30.36 in 10.0 mi East 5.8 mph - N/A   Clear
5:14 AM 17.6 °F 10.7 °F 12.2 °F 79% 30.36 in 10.0 mi East 4.6 mph - N/A   Clear
5:35 AM 17.6 °F 10.7 °F 10.4 °F 73% 30.37 in 10.0 mi East 4.6 mph - N/A   Clear
6:14 AM 15.8 °F 10.2 °F 10.4 °F 79% 30.38 in 10.0 mi East 3.5 mph - N/A   Clear
6:35 AM 15.8 °F 6.1 °F 10.4 °F 79% 30.38 in 10.0 mi East 6.9 mph - N/A   Clear
6:54 AM 15.8 °F 7.2 °F 10.4 °F 79% 30.38 in 10.0 mi East 5.8 mph - N/A   Clear
7:14 AM 15.8 °F 7.2 °F 10.4 °F 79% 30.39 in 10.0 mi East 5.8 mph - N/A   Clear
7:35 AM 14.0 °F 3.9 °F 8.6 °F 79% 30.40 in 10.0 mi East 6.9 mph - N/A   Clear
8:14 AM 14.0 °F 3.9 °F 8.6 °F 79% 30.40 in 10.0 mi East 6.9 mph - N/A   Clear
8:35 AM 15.8 °F 5.1 °F 8.6 °F 73% 30.40 in 10.0 mi East 8.1 mph - N/A   Clear
8:54 AM 15.8 °F 5.1 °F 8.6 °F 73% 30.40 in 10.0 mi East 8.1 mph - N/A   Clear
9:15 AM 15.8 °F 6.1 °F 8.6 °F 73% 30.41 in 10.0 mi East 6.9 mph - N/A   Clear
9:35 AM 17.6 °F 6.4 °F 8.6 °F 68% 30.41 in 10.0 mi East 9.2 mph - N/A   Clear
10:15 AM 17.6 °F 10.7 °F 10.4 °F 73% 30.42 in 10.0 mi East 4.6 mph - N/A   Clear
10:35 AM 19.4 °F - 10.4 °F 68% 30.43 in 10.0 mi Calm Calm - N/A   Clear
10:54 AM 19.4 °F 12.8 °F 10.4 °F 68% 30.43 in 10.0 mi East 4.6 mph - N/A   Clear
11:15 AM 19.4 °F 12.8 °F 10.4 °F 68% 30.43 in 10.0 mi East 4.6 mph - N/A   Clear
11:35 AM 19.4 °F 10.4 °F 10.4 °F 68% 30.42 in 10.0 mi East 6.9 mph - N/A   Clear
11:54 AM 21.2 °F 12.6 °F 10.4 °F 63% 30.42 in 10.0 mi East 6.9 mph - N/A   Clear
12:15 PM 21.2 °F 14.9 °F 12.2 °F 68% 30.42 in 10.0 mi East 4.6 mph - N/A   Clear
12:35 PM 23.0 °F 17.0 °F 12.2 °F 63% 30.41 in 10.0 mi East 4.6 mph - N/A   Clear
12:54 PM 23.0 °F - 12.2 °F 63% 30.41 in 10.0 mi Calm Calm - N/A   Clear
1:15 PM 23.0 °F - 12.2 °F 63% 30.41 in 10.0 mi Calm Calm - N/A   Clear
1:34 PM 23.0 °F 18.4 °F 12.2 °F 63% 30.41 in 10.0 mi North 3.5 mph - N/A   Clear
1:54 PM 23.0 °F 18.4 °F 14.0 °F 68% 30.40 in 10.0 mi North 3.5 mph - N/A   Clear
2:15 PM 23.0 °F - 12.2 °F 63% 30.40 in 10.0 mi Calm Calm - N/A   Clear
2:34 PM 23.0 °F 18.4 °F 14.0 °F 68% 30.38 in 10.0 mi East 3.5 mph - N/A   Clear
2:55 PM 23.0 °F 17.0 °F 14.0 °F 68% 30.38 in 10.0 mi NE 4.6 mph - N/A   Clear
3:15 PM 23.0 °F 18.4 °F 14.0 °F 68% 30.38 in 10.0 mi NE 3.5 mph - N/A   Clear
3:34 PM 23.0 °F 18.4 °F 12.2 °F 63% 30.39 in 10.0 mi ENE 3.5 mph - N/A   Clear
4:14 PM 23.0 °F 17.0 °F 15.8 °F 74% 30.40 in 10.0 mi NNW 4.6 mph - N/A   Clear
4:35 PM 21.2 °F 12.6 °F 15.8 °F 80% 30.41 in 10.0 mi NNW 6.9 mph - N/A   Clear
4:54 PM 21.2 °F 12.6 °F 15.8 °F 80% 30.41 in 10.0 mi North 6.9 mph - N/A   Clear
5:14 PM 21.2 °F 16.4 °F 15.8 °F 80% 30.41 in 10.0 mi NNE 3.5 mph - N/A   Clear
5:35 PM 19.4 °F 12.8 °F 12.2 °F 74% 30.41 in 10.0 mi North 4.6 mph - N/A   Clear
5:54 PM 19.4 °F 14.3 °F 12.2 °F 74% 30.40 in 10.0 mi NNE 3.5 mph - N/A   Clear
6:14 PM 19.4 °F 14.3 °F 12.2 °F 74% 30.39 in 10.0 mi ENE 3.5 mph - N/A   Clear
6:35 PM 19.4 °F - 12.2 °F 74% 30.40 in 10.0 mi Calm Calm - N/A   Clear
6:54 PM 17.6 °F - 12.2 °F 79% 30.40 in 10.0 mi Calm Calm - N/A   Clear
7:14 PM 15.8 °F - 10.4 °F 79% 30.40 in 10.0 mi Calm Calm - N/A   Clear
7:35 PM 14.0 °F - 10.4 °F 86% 30.40 in 10.0 mi Calm Calm - N/A   Clear
7:54 PM 12.2 °F - 6.8 °F 79% 30.39 in 10.0 mi Calm Calm - N/A   Clear
8:15 PM 10.4 °F - 5.0 °F 79% 30.40 in 10.0 mi Calm Calm - N/A   Clear
8:35 PM 12.2 °F - 8.6 °F 85% 30.39 in 10.0 mi Calm Calm - N/A   Clear
8:54 PM 12.2 °F - 8.6 °F 85% 30.39 in 10.0 mi Calm Calm - N/A   Clear
9:15 PM 12.2 °F - 6.8 °F 79% 30.39 in 10.0 mi Calm Calm - N/A   Clear
9:35 PM 12.2 °F 4.3 °F 6.8 °F 79% 30.38 in 10.0 mi ESE 4.6 mph - N/A   Clear
9:54 PM 10.4 °F - 6.8 °F 85% 30.37 in 10.0 mi Calm Calm - N/A   Clear
10:15 PM 8.6 °F 2.0 °F 5.0 °F 85% 30.37 in 10.0 mi SE 3.5 mph - N/A   Clear
10:35 PM 3.2 °F - -0.4 °F 85% 30.37 in 10.0 mi Calm Calm - N/A   Clear
10:54 PM 5.0 °F - -0.4 °F 78% 30.37 in 10.0 mi Calm Calm - N/A   Clear
11:15 PM 6.8 °F - 1.4 °F 79% 30.36 in 10.0 mi Calm Calm - N/A   Clear
11:34 PM 6.8 °F - -0.4 °F 72% 30.35 in 10.0 mi Calm Calm - N/A   Clear
11:54 PM 6.8 °F - 1.4 °F 79% 30.35 in 10.0 mi Calm Calm - N/A   Clear